Location: A O Calhoun Middle School
(33.2198°N, 97.1397°W)
Time: 10:33:20
(UTC+00:00)

H-2A R/B - Pass Details

Date: 12 July 2022
Orbit: 576 x 652 km, 98.5° (Epoch: 13 August)

Event Time Altitude Azimuth Distance (km) Brightness Sun altitude
Rises 03:54:17 0° 350° (N) 2,968 6.5 -22.9°
Reaches altitude 10° 03:57:21 10° 327° (NNW) 2,059 5.8 -23.3°
Maximum altitude 03:59:51 15° 293° (WNW) 1,750 5.1 -23.7°
Drops below altitude 10° 04:02:22 10° 259° (W) 2,054 5.0 -24.0°
Sets 04:05:25 0° 236° (SW) 2,957 5.6 -24.4°
